STARLINK-1306, 45362

Orbit data source: Space-Track

STARLINK-1306, 45362 is a payload satellite owned by SpaceX/Seattle (US) in LEO that was launched on Wed, 18 Mar 2020 UTC via an FALCON 9 launch vehicle from the Air Force Eastern Test Range (AFETR). Payload-class satellites include a variety of spacecraft equipped with specific instruments for various scientific and technological missions. These include communications satellites like Starlink; space stations such as the ISS; scientific satellites like the Hubble; Earth observation satellites from companies like Planet Labs, Umbra, and HawkEye 360; GPS; miniature CubeSats for education and research; and military/defense satellites.

Not visible in the next 10 days
Identifier
45362, 2020-019C
Orbit
LEO
Country
Flag of USUS
Related business
Manufacturer
SpaceX/Seattle
Mission
Partially operational Commercial Communications
Bus & Motor
STARLINK, Unknown motor
Mass
260 kg wet, ~248 kg dry
Launch date (UTC)
2020-03-18 (6 years ago)
Launch vehicle
FALCON 9
Launch site
Air Force Eastern Test Range (AFETR)
Object type
Payload
Rocket body
Debris
Shape & HBR
Box + 1 Pan, 10.1 m
Radar Cross Section
13.562 m², Large (>1 m²)

Expand to show TLE details & history
Last TLE update: 5 hours ago

TLE from 5 hours ago
0 STARLINK-1306
1 45362U 20019C   25288.66670139  .00161486  00000-0  16571-2 0  9993
2 45362  53.0480  71.7847 0006082 201.8171 313.4455 15.63903604  6000
Epoch: 2025-10-15T16:00Z
TLE epoch observation values (Epoch: 2025-10-15T16:00:03.000Z)
Latitude
19.61653°
Longitude
-28.12753°
Altitude
374.005 km
Speed
7.69 km/s
True Right ascension
15h 45m 17s
True Declination
19° 30' 07"
Sunlit
Object was in daylight at epoch
Visualization orbit readout
Latitude
Unknown
Longitude
Unknown
Altitude
Unknown
Speed
Unknown
Apparent Right ascension
Unknown
Apparent Declination
Unknown
Sunlit
N/A
Visualization observer readout
Local Sidereal Time
16:07:00
Azimuth
Unknown
Elevation
Unknown
Doppler factor
Unknown
Orbital elements
Apogee altitude
380.781 km
Perigee altitude
372.564 km
Semi-major axis
6,754.809 km
Eccentricity
0.00061
Inclination
53.048°
RAAN
71.7847°
Arg. of periapsis
201.8171°
True anomaly
313.39487°
Mean anomaly
313.4455°
Eccentric anomaly
313.42019°
Mean motion
3.90952 °/min
Orbital period
92.08 mins
BSTAR
0.0016571
Loading maneuver chart data...
Computing Atmospheric mass density...
Loading historical data...
Loading historical data...
Loading historical data...
Loading historical data...
Loading historical data...
Loading historical data...
Loading historical data...

Documentation

Showing up to 5 results
|